CAPE
3 4 4 1 3 2 3 4 2 3 1 1 2 1 1 1 1 0 0 0 0 0 0 0 0 0 0 0 0 0 0 0 0 0 0 0 0 0 0 0 0 0 0 0 0
2 2 2 3 2 1 2 2 2 3 2 2 2 0 3 1 0 0 0 0 0 0 0 0 0 0 0 0 0 0 0 0 0 0 0 0 0 0 0 0 0 0 0 0 0
1 2 1 1 2 2 1 1 1 4 1 1 2 0 1 0 0 4 0 0 0 0 0 0 0 0 0 0 0 0 0 0 0 0 0 0 0 0 0 0 0 0 0 0 0
0 0 1 2 3 1 2 2 2 1 3 2 0 1 0 0 0 53 0 0 0 0 0 0 0 0 0 0 0 0 0 0 0 0 0 0 0 0 0 0 0 0 0 0 0
0 0 0 0 2 1 1 2 2 1 1 2 1 0 0 0 0 0 0 0 0 0 0 0 0 0 0 0 0 0 0 0 0 0 0 0 0 0 0 0 0 0 0 0 0
0 0 0 0 0 1 2 0 1 1 1 3 1 0 0 0 0 0 0 0 0 0 0 0 0 0 0 0 0 0 0 0 0 0 0 0 0 0 0 0 0 0 0 0 0
0 0 0 0 1 1 1 0 0 0 1 2 2 0 0 0 0 0 0 0 0 0 0 0 0 0 0 0 0 0 0 0 0 0 0 0 0 0 0 0 0 0 0 0 0
0 0 0 0 1 1 1 1 0 0 0 1 0 0 0 0 0 0 0 0 0 0 0 0 0 0 0 0 0 0 0 0 0 0 0 0 0 0 0 0 0 0 0 0 0
0 0 0 0 0 1 1 0 0 2 1 0 0 0 0 0 0 0 0 0 0 0 0 0 0 0 0 0 0 0 0 0 0 0 0 0 0 0 0 0 0 0 0 0 0
0 0 0 0 0 1 1 0 0 0 0 0 0 0 0 0 0 0 0 0 0 0 0 0 0 0 0 0 0 0 0 0 0 0 0 0 0 0 0 0 0 0 0 0 0
0 0 0 0 0 0 0 0 0 0 0 0 0 0 0 0 0 0 0 0 0 0 0 0 0 0 0 0 0 0 0 0 0 0 0 0 0 0 0 0 0 0 0 0 0
0 0 0 0 0 0 0 0 0 0 0 0 0 0 0 0 0 0 0 0 0 0 0 0 0 0 0 0 0 0 0 0 0 0 0 0 0 0 0 0 0 0 0 0 0
0 0 0 0 0 0 0 0 0 0 0 0 0 0 0 0 0 0 0 0 0 0 0 0 0 0 0 0 0 0 0 0 0 0 0 0 0 0 0 0 0 0 0 0 0
0 0 1 1 0 0 0 0 0 0 0 0 0 0 0 0 0 0 0 0 0 0 0 0 0 0 0 0 0 0 0 0 0 0 0 0 0 0 0 0 0 0 0 0 0
0 0 2 4 0 0 0 0 0 0 1 0 0 0 0 0 0 0 0 0 0 0 0 0 0 0 0 0 0 0 0 0 0 0 0 0 0 0 0 0 0 0 0 0 0
0 0 0 0 0 0 0 0 0 0 2 0 0 0 0 0 0 0 0 0 0 0 0 0 0 0 0 0 0 0 0 0 0 0 0 0 1 1 0 0 0 0 0 0 0
0 0 0 0 0 0 0 0 1 2 0 0 0 0 0 0 0 0 0 0 0 0 0 0 0 0 0 0 0 0 0 0 2 4 0 0 0 0 0 0 0 0 0 9 17
0 0 0 0 0 0 0 0 7 0 1 0 0 0 0 0 0 0 0 0 0 1 0 0 1 3 0 0 0 1 9 17 7 7 5 0 0 0 0 0 0 11 37 33 36
0 0 0 0 0 0 0 10 6 5 0 0 0 0 16 0 0 0 2 3 0 0 0 0 0 0 0 0 0 0 0 0 3 5 0 0 0 0 0 1 7 10 23 34 39
0 0 0 0 0 0 0 0 0 0 0 0 0 4 14 18 6 21 9 0 2 0 0 0 1 1 0 0 0 0 0 1 5 1 0 0 0 0 4 0 0 2 21 22 14
0 0 0 0 0 0 0 1 0 0 0 0 2 1 11 21 16 14 7 3 0 0 0 0 2 0 0 0 0 1 0 0 0 7 6 2 0 0 0 0 2 11 30 35 41
0 0 0 0 0 0 0 0 0 0 0 0 0 5 15 7 8 14 12 7 1 0 9 4 8 7 1 1 0 0 0 0 5 7 6 13 0 5 0 0 7 13 30 37 24
0 0 0 0 0 3 0 0 0 0 3 2 7 8 14 1 8 13 6 8 3 11 6 6 8 7 5 0 2 0 0 0 1 7 2 13 2 11 11 13 12 28 45 26 48
0 0 0 0 0 0 0 0 0 0 0 0 0 4 2 8 2 3 2 1 0 2 0 0 12 15 8 0 20 14 3 1 12 8 16 13 20 18 11 14 12 18 40 25 37
0 0 0 0 0 0 0 0 0 0 0 1 0 1 0 5 3 4 11 8 7 1 0 1 11 15 14 20 3 8 0 5 6 6 9 1 5 2 6 14 33 44 47 28 23
0 0 0 0 0 0 0 0 0 0 0 1 2 0 8 9 7 5 7 14 16 20 9 4 7 7 2 9 4 1 0 0 1 4 8 5 0 7 26 26 33 10 2 7 1
2 1 0 0 0 0 0 0 1 2 0 1 3 2 5 9 1 9 9 11 6 10 10 17 27 16 3 0 7 0 1 3 0 4 17 19 25 13 20 17 0 0 0 0 0
CIN
-0 0 -0 0 0 0 -0 0 0 -0 -0 -0 -0 -1 -0 -0 0 0 0 0 0 0 0 0 0 0 0 0 0 0 0 0 0 0 0 0 0 0 0 0 0 0 0 0 0
0 0 0 0 0 -0 -0 0 0 -0 -0 -0 -0 -0 -0 -0 0 0 0 0 0 0 0 0 0 0 0 0 0 0 0 0 0 0 0 0 0 0 0 0 0 0 0 0 0
0 0 0 0 0 0 0 0 0 0 0 -0 -0 -0 -0 0 0 -193 0 0 0 0 0 0 0 0 0 0 0 0 0 0 0 0 0 0 0 0 0 0 0 0 0 0 0
0 0 0 0 0 -0 0 0 0 0 0 -0 -0 0 0 0 0 -124 0 0 0 0 0 0 0 0 0 0 0 0 0 0 0 0 0 0 0 0 0 0 0 0 0 0 0
0 0 0 0 0 -0 0 -0 0 0 0 0 0 0 0 0 0 0 0 0 0 0 0 0 0 0 0 0 0 0 0 0 0 0 0 0 0 0 0 0 0 0 0 0 0
0 0 0 0 0 0 0 0 0 -0 0 0 0 0 0 0 0 0 0 0 0 0 0 0 0 0 0 0 0 0 0 0 0 0 0 0 0 0 0 0 0 0 0 0 0
0 0 0 0 0 0 0 0 0 0 -0 0 0 0 0 0 0 0 0 0 0 0 0 0 0 0 0 0 0 0 0 0 0 0 0 0 0 0 0 0 0 0 0 0 0
0 0 0 0 0 0 0 0 0 0 0 0 0 0 0 0 0 0 0 0 0 0 0 0 0 0 0 0 0 0 0 0 0 0 0 0 0 0 0 0 0 0 0 0 0
0 0 0 0 0 0 0 0 0 0 0 0 0 0 0 0 0 0 0 0 0 0 0 0 0 0 0 0 0 0 0 0 0 0 0 0 0 0 0 0 0 0 0 0 0
0 0 0 0 0 0 0 0 0 0 0 0 0 0 0 0 0 0 0 0 0 0 0 0 0 0 0 0 0 0 0 0 0 0 0 0 0 0 0 0 0 0 0 0 0
0 0 0 0 0 0 0 0 0 0 0 0 0 0 0 0 0 0 0 0 0 0 0 0 0 0 0 0 0 0 0 0 0 0 0 0 0 0 0 0 0 0 0 0 0
0 0 0 0 0 0 0 0 0 0 0 0 0 0 0 0 0 0 0 0 0 0 0 0 0 0 0 0 0 0 0 0 0 0 0 0 0 0 0 0 0 0 0 0 0
0 0 0 0 0 0 0 0 0 0 0 0 0 0 0 0 0 0 0 0 0 0 0 0 0 0 0 0 0 0 0 0 0 0 0 0 0 0 0 0 0 0 0 0 0
0 0 0 0 0 0 0 0 0 0 0 0 0 0 0 0 0 0 0 0 0 0 0 0 0 0 0 0 0 0 0 0 0 0 0 0 0 0 0 0 0 0 0 0 0
0 0 0 0 0 0 0 0 0 0 -7 0 0 0 0 0 0 0 0 0 0 0 0 0 0 0 0 0 0 0 0 0 0 0 0 0 0 0 -0 0 0 0 0 0 0
0 0 0 0 0 0 0 0 0 0 -11 0 0 0 0 0 0 0 0 0 0 0 0 0 0 0 0 0 0 0 0 0 0 0 0 0 -2 -7 -5 0 0 0 0 0 0
0 0 0 0 0 0 0 0 -1 -4 0 -2 0 0 0 0 0 0 0 0 0 0 0 0 0 0 0 0 0 0 0 0 -3 -18 0 0 0 0 0 0 0 0 -0 -3 -4
0 0 0 0 0 0 0 0 -2 0 -3 0 0 0 0 -1 -1 0 0 0 -7 -3 0 0 -2 -15 0 0 0 -0 -6 -7 -6 -7 -10 0 0 0 0 0 0 -2 -6 -3 -3
0 0 0 0 0 0 0 -3 -3 -3 0 0 0 -0 -4 -1 0 0 -4 -8 -1 0 0 0 -0 0 0 0 0 0 -1 0 -3 -3 0 0 0 0 0 -1 -9 -5 -2 -2 -2
0 0 0 0 0 0 0 0 -0 0 0 0 -2 -1 -8 -6 -5 -4 -3 -2 -5 -0 0 0 -3 -3 0 0 0 0 0 -1 -2 -3 -2 0 0 0 -6 -4 0 -7 -3 -4 -8
0 0 0 0 0 0 -0 -0 0 0 0 0 -1 -3 -3 -3 -6 -5 -8 -5 -1 0 0 0 -1 0 0 0 0 -6 -0 0 0 -3 -2 -1 0 0 0 0 -4 -3 -5 -4 -4
0 0 0 0 -1 0 0 0 0 0 0 0 -1 -1 -2 -4 -5 -4 -5 -5 -2 -0 -3 -5 -2 -3 -5 -3 0 0 0 -3 -9 -2 -5 -3 -1 -9 0 -1 -4 -4 -3 -7 -6
0 0 0 0 0 -2 0 0 0 0 -1 -2 -2 -3 -2 -10 -4 -3 -5 -4 -4 -4 -4 -2 -3 -2 -3 0 -7 0 0 0 -1 -2 -2 -2 -3 -9 -6 -6 -5 -9 -5 -4 -4
0 0 0 0 0 0 0 0 0 -0 0 0 -1 -3 -2 -3 -3 -12 -3 -4 0 -2 0 0 -2 -2 -3 0 -3 -3 -2 -2 -3 -5 -6 -6 -9 -7 -9 -8 -6 -7 -5 -4 -7
0 0 0 0 0 0 0 0 0 -1 0 -2 -0 -2 0 -1 -4 -3 -3 -5 -3 -10 -3 -2 -2 -3 -3 -3 -5 -7 -6 -3 -5 -6 -5 -4 -7 -6 -6 -10 -4 -3 -5 -5 -7
0 0 0 0 0 0 0 -1 0 0 -0 -1 -1 0 -1 -0 -2 -0 -2 -1 -1 -2 -5 -4 -2 -2 -2 -3 -5 -6 -5 -2 -3 -4 -4 -3 -2 -10 -6 -8 -6 -9 -2 -4 -3
-2 -0 0 0 0 0 0 0 -0 -1 0 -1 -1 -1 -1 -1 -0 -1 -1 -1 -1 -1 -1 -1 -0 -2 -1 -1 -8 -1 -0 -2 0 -7 -7 -4 -3 -8 -8 -8 0 0 0 0 -1
Wind_Speed
35 34 33 32 30 29 28 26 20 18 15 12 12 4 8 25 27 29 32 27 30 31 27 25 24 23 26 29 28 29 40 44 45 41 42 29 29 29 29 28 25 26 28 26 23
36 36 34 33 31 30 29 27 22 16 15 10 8 4 11 22 24 28 32 27 26 27 26 24 22 19 24 27 25 30 38 40 37 38 35 37 39 33 30 30 33 32 29 28 28
37 36 36 34 33 31 29 28 23 12 14 10 6 9 13 17 20 15 11 28 28 33 31 25 21 18 24 23 24 28 39 31 33 28 30 31 31 31 36 40 36 36 35 31 28
37 37 37 35 34 32 30 28 24 13 14 10 7 12 14 16 14 17 19 20 27 31 30 26 22 19 22 23 22 29 30 35 28 26 28 34 33 33 32 36 33 31 33 34 33
37 37 38 38 35 33 31 28 26 15 8 10 8 12 14 16 15 14 9 15 22 29 30 24 20 19 21 20 21 25 27 26 30 29 28 29 32 33 33 30 27 28 30 30 30
38 38 38 38 36 33 32 29 27 18 6 8 9 12 16 15 14 10 11 15 21 26 25 23 21 24 24 22 19 20 29 26 25 27 26 29 31 30 29 23 27 25 27 29 28
39 39 39 38 37 33 32 30 27 21 5 9 11 13 17 18 18 21 17 21 20 23 21 22 21 18 20 18 21 23 22 26 27 24 25 27 33 34 31 28 28 29 28 28 28
40 40 38 38 37 33 32 24 28 26 7 9 13 15 17 10 22 24 24 18 16 19 21 15 19 22 20 16 17 23 23 28 22 21 22 22 30 21 15 20 25 25 26 27 29
41 40 39 37 34 32 31 27 21 8 10 10 9 16 17 9 22 25 26 17 15 13 15 14 17 18 17 19 21 19 28 23 17 15 21 19 27 20 21 24 30 31 29 28 28
41 39 39 37 33 29 24 7 15 12 12 10 23 19 20 18 8 4 25 22 19 16 12 14 15 18 19 20 25 25 22 27 23 18 18 27 30 27 29 29 29 30 29 29 29
25 32 37 35 33 31 5 12 12 11 7 6 15 20 10 8 6 4 5 18 21 19 18 13 18 20 21 19 27 26 27 26 23 20 28 32 33 32 31 31 31 30 31 31 28
19 21 30 32 32 29 9 9 20 17 8 9 6 25 17 13 9 3 2 18 22 30 25 18 25 27 23 23 24 26 27 28 27 25 28 31 34 34 33 33 32 31 31 31 31
18 19 21 26 27 8 7 6 17 16 10 11 7 5 5 16 14 3 0 10 14 24 17 27 16 16 22 21 24 23 28 29 29 28 31 35 39 29 24 24 23 23 25 28 30
19 22 19 20 8 15 11 10 10 16 12 10 9 9 10 4 9 11 4 12 21 27 24 25 26 15 16 21 19 26 22 26 27 30 37 32 44 37 32 26 25 26 29 30 31
18 21 17 7 12 15 17 15 18 13 15 13 13 11 10 11 10 2 12 19 26 18 22 22 18 19 20 22 22 26 29 28 30 35 39 34 37 34 31 27 23 24 30 33 35
22 24 13 18 14 11 12 12 13 13 16 14 13 10 10 8 8 7 4 11 19 27 21 31 19 21 25 25 24 27 31 33 35 35 41 36 33 29 21 26 28 28 34 31 33
26 17 19 17 18 18 12 12 14 17 15 14 12 9 7 6 8 6 3 2 10 13 16 24 27 25 20 28 28 23 31 36 34 29 31 21 28 29 33 26 26 30 30 31 31
24 4 16 15 14 8 12 13 15 18 18 17 15 12 6 7 3 7 6 11 10 22 27 27 24 24 20 24 31 32 30 30 35 35 38 38 34 24 19 20 20 24 25 29 31
19 15 16 18 17 11 18 13 19 19 19 20 19 15 6 6 13 9 10 12 13 15 22 25 28 21 23 24 24 26 23 25 31 33 35 28 23 17 16 20 18 22 28 28 31
19 15 19 17 16 16 17 18 19 18 21 19 22 19 19 12 12 13 14 15 13 16 18 21 33 25 21 21 24 26 29 26 21 28 29 23 28 26 21 23 27 31 29 27 31
15 14 20 17 14 12 16 18 18 18 21 20 23 24 25 22 14 13 14 16 12 15 17 20 23 27 20 23 28 19 21 19 23 21 25 30 21 22 29 30 30 30 28 32 35
15 16 20 16 13 15 17 17 19 18 18 18 18 21 24 26 26 23 17 13 14 17 17 18 24 28 28 27 23 24 28 23 18 23 20 23 29 27 21 22 21 27 29 33 32
17 16 17 14 18 15 17 17 16 20 21 20 22 23 23 26 26 21 24 19 12 12 17 15 18 29 28 22 18 24 22 19 21 21 26 30 29 23 25 21 24 25 29 31 29
16 18 16 17 17 19 21 19 18 15 21 20 24 27 28 27 23 23 23 19 13 11 13 18 19 23 27 21 17 21 20 20 17 20 21 20 23 25 26 39 35 23 29 27 24
16 17 18 18 17 22 20 19 19 20 20 22 20 22 24 22 21 20 21 23 16 12 15 16 23 28 33 37 35 35 30 22 18 18 21 21 19 39 36 40 33 25 28 29 25
20 21 16 16 16 19 18 19 20 20 20 19 20 26 23 22 24 28 26 23 18 17 15 17 25 30 33 34 39 37 32 24 19 17 14 14 34 24 32 20 36 37 42 28 38
19 17 16 17 16 17 19 20 19 21 21 19 21 22 23 23 22 21 19 15 14 18 18 21 23 26 34 30 34 33 31 18 10 10 17 25 35 34 37 38 39 45 48 38 35
Wind_Direction
353 348 341 340 341 335 333 341 358 4 11 19 17 69 203 255 258 250 243 245 239 244 242 243 242 246 249 249 249 253 249 251 252 257 258 274 269 273 276 278 282 281 278 285 299
358 354 347 339 336 332 332 335 356 12 17 34 47 111 210 256 250 239 229 245 242 232 234 234 235 240 245 247 248 249 249 251 257 262 265 263 266 272 273 272 276 279 282 286 288
354 353 349 342 337 330 325 333 353 30 24 47 96 187 216 237 240 275 252 228 229 218 222 232 238 238 245 249 248 252 250 259 261 272 271 273 274 277 274 270 276 276 277 283 285
360 352 348 341 340 333 320 320 344 33 29 55 106 199 212 197 123 284 251 238 220 214 219 229 234 238 248 251 254 256 258 260 270 275 273 271 276 276 277 278 284 285 282 282 281
351 353 346 346 332 330 323 309 323 17 68 64 113 184 192 153 188 300 277 234 219 213 217 227 235 242 251 258 260 259 264 267 269 274 277 278 275 277 278 285 288 288 288 286 284
333 343 346 343 334 318 324 309 308 351 90 164 138 164 166 158 239 343 252 223 219 215 225 231 241 242 257 264 260 271 262 272 273 275 278 279 281 282 283 290 288 287 289 289 289
322 326 330 341 334 312 311 315 298 320 102 163 165 161 188 180 229 200 228 220 232 227 237 241 254 254 264 266 266 272 273 272 272 277 280 284 281 279 281 282 285 288 289 290 290
321 321 315 323 319 308 302 277 286 284 42 139 166 178 176 276 196 194 205 242 246 242 246 263 260 257 262 280 276 270 275 273 279 275 282 285 281 296 303 291 291 291 292 291 290
319 318 313 311 306 300 300 287 252 22 7 19 107 157 179 7 167 176 195 238 245 260 264 272 266 266 272 270 271 277 271 277 281 289 288 283 286 298 301 294 291 292 293 294 294
312 306 307 302 297 291 279 217 18 29 360 5 236 238 210 157 95 52 207 227 240 253 274 273 279 270 269 266 266 276 275 273 279 292 293 286 286 294 294 294 294 296 296 296 295
292 294 302 293 293 291 342 43 48 50 82 93 314 268 338 332 357 59 315 250 246 254 262 274 270 268 273 277 274 289 280 281 290 296 290 288 290 292 294 294 294 295 296 295 296
296 289 289 290 289 287 53 52 356 3 40 151 356 252 286 297 301 355 344 250 241 217 244 267 264 259 275 276 278 278 279 281 286 290 291 290 289 292 294 294 295 296 297 297 297
302 294 285 281 280 345 78 84 352 13 28 39 84 100 318 275 283 296 158 269 273 255 270 254 299 285 275 280 277 281 277 280 284 293 292 292 288 297 304 307 306 302 302 301 300
304 298 283 275 39 25 46 42 58 7 23 37 55 49 112 88 302 285 289 277 269 257 264 271 271 289 287 282 287 281 295 291 291 291 286 299 281 294 300 302 302 301 301 303 302
318 299 278 98 30 49 7 11 342 46 341 41 29 40 105 120 46 110 279 272 265 281 274 279 282 278 285 286 291 287 292 294 292 292 291 296 293 301 303 303 308 314 314 310 307
309 302 311 48 76 108 97 157 64 8 331 11 23 48 95 118 27 50 96 289 286 274 281 268 293 283 281 291 293 292 293 292 290 292 283 293 293 301 318 316 313 318 316 316 315
306 290 35 40 5 23 200 93 8 341 359 6 31 61 92 58 26 61 25 299 299 300 294 282 280 284 287 286 291 297 293 288 289 289 292 318 303 304 307 320 319 318 320 320 319
301 246 55 52 54 156 174 20 348 339 338 347 351 5 19 19 37 4 342 309 297 294 289 290 287 291 291 291 287 284 291 289 290 290 291 302 304 318 333 332 331 329 331 328 326
287 49 43 22 25 73 326 357 336 335 341 333 333 338 3 18 340 349 328 316 308 312 290 291 285 299 296 297 299 304 292 302 298 299 299 306 312 322 329 327 338 332 332 332 328
21 37 15 26 33 10 346 334 337 344 336 338 318 334 321 333 339 337 328 329 310 312 309 301 285 294 298 301 294 292 296 299 305 303 305 315 316 318 331 332 327 327 329 329 332
35 28 10 14 27 24 355 342 342 350 339 337 321 314 310 317 333 329 330 328 329 315 308 299 293 292 296 295 292 296 301 299 303 303 306 309 320 337 329 327 328 328 329 326 328
31 13 10 26 18 7 352 346 346 343 348 343 337 327 317 311 311 313 317 320 336 324 314 306 298 288 287 294 300 295 292 298 294 306 309 306 310 322 337 333 331 332 330 328 328
10 9 17 24 355 358 355 348 348 337 337 337 327 325 323 312 315 321 316 315 316 313 319 317 302 287 293 292 295 296 296 297 301 306 304 307 314 326 326 332 336 335 333 331 331
7 358 15 8 358 345 340 342 341 358 341 339 323 316 314 312 316 317 319 328 332 320 317 314 300 291 284 304 303 299 303 300 302 302 308 308 315 327 327 302 322 332 332 331 329
1 353 356 355 356 339 338 337 335 333 340 337 339 333 329 326 324 320 318 313 319 324 311 305 294 289 283 277 282 285 292 299 296 301 304 314 315 277 276 293 321 338 335 333 327
340 343 357 349 356 345 341 341 334 334 338 340 334 323 330 326 324 315 320 321 314 313 304 300 294 288 282 278 269 278 287 297 298 300 295 256 255 249 316 343 324 330 306 325 325
341 344 348 345 350 348 339 333 336 330 331 335 332 333 328 328 331 329 327 316 309 312 304 293 290 289 278 278 271 280 286 301 284 291 304 303 284 289 299 318 326 314 320 326 323